EW6030 Weather Reports


Display with metric or nautical units.
time (UTC)temp
F
wind
direction
speed
MPH
gust
MPH
rain 1hr
in
rain 24hr
in
rain mn
in
humidity
%
barometer
mb
20260905031535 77 86 0.0 0.0 0.00 0.00 0.00 71 1009.1
20260905030042 77 86 0.0 0.0 0.00 0.00 0.00 71 1009.0
20260905024534 78 87 0.0 0.0 0.00 0.00 0.00 71 1009.3
20260905023034 78 87 0.0 0.0 0.00 0.00 0.00 72 1009.7
20260905021532 79 85 0.0 0.0 0.00 0.00 0.00 72 1009.4
20260905020034 79 85 0.0 0.0 0.00 0.00 0.00 72 1009.0
20260905014533 80 79 0.0 0.0 0.00 0.00 0.00 71 1009.3
20260905013035 80 66 0.0 0.0 0.00 0.00 0.00 71 1009.0
20260905011531 79 58 0.0 0.0 0.00 0.00 0.00 71 1008.8
20260905010041 80 57 0.0 0.0 0.00 0.00 0.00 72 1008.7
20260905004531 80 57 0.0 0.0 0.00 0.00 0.00 72 1008.6
20260905003034 80 57 0.0 0.0 0.00 0.00 0.00 72 1008.2
20260905001529 80 56 0.0 0.0 0.00 0.00 0.00 72 1007.8
20260905000029 80 57 0.0 0.0 0.00 0.00 0.00 72 1007.6
20260904234528 80 57 0.0 0.0 0.00 0.00 0.00 72 1007.6
20260904233029 81 57 0.0 0.0 0.00 0.00 0.00 72 1007.8
20260904231527 81 57 0.0 0.0 0.00 0.00 0.00 73 1007.8
20260904230043 81 56 0.0 0.0 0.00 0.00 0.00 73 1007.9
20260904224530 82 57 0.0 0.0 0.00 0.00 0.00 73 1007.6
20260904223027 82 57 0.0 0.0 0.00 0.00 0.00 74 1007.5
20260904221526 82 57 0.0 0.0 0.00 0.00 0.00 74 1007.3
20260904220028 83 56 0.0 0.0 0.00 0.00 0.00 74 1007.6
20260904214525 84 56 0.0 0.0 0.00 0.00 0.00 75 1007.8
20260904213025 85 56 0.0 0.0 0.00 0.00 0.00 76 1007.7
20260904211524 86 56 1.0 0.0 0.00 0.00 0.00 75 1007.7
20260904210023 86 58 1.0 0.0 0.00 0.00 0.00 74 1007.6
20260904204525 86 55 0.0 0.0 0.00 0.00 0.00 75 1007.7
20260904203019 85 303 0.0 0.0 0.00 0.00 0.00 76 1007.8
20260904201514 84 70 1.0 0.0 0.00 0.00 0.00 76 1007.7
20260904200013 83 57 1.0 0.0 0.00 0.00 0.00 76 1008.0
20260904194510 82 98 0.0 0.0 0.00 0.00 0.00 76 1008.3
20260904193012 81 20 0.0 0.0 0.00 0.00 0.00 75 1008.5
20260904191502 79 40 0.0 0.0 0.00 0.00 0.00 72 1008.9
20260904190059 77 179 0.0 0.0 0.00 0.00 0.00 71 1009.1
20260904184559 75 180 0.0 0.0 0.00 0.00 0.00 71 1009.1
20260904183113 74 178 0.0 0.0 0.00 0.00 0.00 71 1009.1
20260904181557 74 100 0.0 0.0 0.00 0.00 0.00 71 1009.3
20260904180057 73 87 0.0 0.0 0.00 0.00 0.00 72 1008.8
20260904174556 73 95 0.0 0.0 0.00 0.00 0.00 73 1008.8
20260904173059 74 294 0.0 0.0 0.00 0.00 0.00 76 1009.7
20260904171556 75 60 1.0 0.0 0.00 0.00 0.00 76 1010.7
20260904170056 74 218 0.0 0.0 0.00 0.00 0.00 74 1010.3
20260904164556 73 214 0.0 0.0 0.00 0.00 0.00 73 1010.2
20260904163104 72 156 0.0 0.0 0.00 0.00 0.00 72 1010.2
20260904161553 71 192 0.0 0.0 0.00 0.00 0.00 73 1010.3
20260904160104 71 71 0.0 0.0 0.00 0.00 0.00 72 1010.0
20260904154552 71 203 0.0 0.0 0.00 0.00 0.00 71 1010.8
20260904153104 70 53 0.0 0.0 0.00 0.00 0.00 71 1010.8
20260904151551 69 136 0.0 0.0 0.00 0.00 0.00 71 1010.5
20260904144552 69 241 1.0 0.0 0.00 0.00 0.00 72 1011.1
20260904143048 70 78 0.0 0.0 0.00 0.00 0.00 73 1011.7
20260904141548 70 145 0.0 0.0 0.00 0.00 0.00 73 1011.4
20260904140052 71 252 0.0 0.0 0.00 0.00 0.00 74 1011.1
20260904134548 71 156 0.0 0.0 0.00 0.00 0.00 74 1010.5
20260904133042 71 213 1.0 0.0 0.00 0.00 0.00 73 1011.4
20260904131539 71 303 2.0 0.0 0.00 0.00 0.00 72 1011.4
20260904130053 72 214 1.0 0.0 0.00 0.00 0.00 72 1010.3
20260904124535 73 166 1.0 0.0 0.00 0.00 0.00 71 1009.9
20260904123031 74 187 2.0 0.0 0.00 0.00 0.00 71 1009.5
20260904121529 74 260 0.0 0.0 0.00 0.00 0.00 71 1008.3
20260904120037 74 260 0.0 0.0 0.00 0.00 0.00 71 1008.2
20260904114528 73 260 0.0 0.0 0.00 0.00 0.00 71 1007.9
20260904113033 73 260 0.0 0.0 0.00 0.00 0.00 71 1007.6
20260904111527 73 260 0.0 0.0 0.00 0.00 0.00 71 1007.3
20260904110026 73 260 0.0 0.0 0.00 0.00 0.00 71 1007.3
20260904104529 73 260 0.0 0.0 0.00 0.00 0.00 71 1007.5
20260904103025 73 260 0.0 0.0 0.00 0.00 0.00 71 1007.4
20260904101527 73 260 0.0 0.0 0.00 0.00 0.00 71 1007.6
20260904100024 73 260 0.0 0.0 0.00 0.00 0.00 71 1007.6
20260904094523 74 260 0.0 0.0 0.00 0.00 0.00 71 1007.8
20260904093026 74 260 0.0 0.0 0.00 0.00 0.00 72 1007.9
20260904091523 74 260 0.0 0.0 0.00 0.00 0.00 72 1007.8
20260904090028 74 260 0.0 0.0 0.00 0.00 0.00 72 1007.8
20260904084522 74 260 0.0 0.0 0.00 0.00 0.00 72 1007.7
20260904083029 74 261 0.0 0.0 0.00 0.00 0.00 71 1007.9
20260904081521 74 261 0.0 0.0 0.00 0.00 0.00 72 1007.9
20260904080021 74 261 0.0 0.0 0.00 0.00 0.00 72 1008.0
20260904074520 73 217 0.0 0.0 0.00 0.00 0.00 72 1008.3
20260904073020 73 257 0.0 0.0 0.00 0.00 0.00 72 1008.1
20260904071522 73 250 0.0 0.0 0.00 0.00 0.00 72 1007.7
20260904070020 73 249 0.0 0.0 0.00 0.00 0.00 72 1007.5
20260904064517 74 233 0.0 0.0 0.00 0.00 0.00 72 1007.4
20260904063016 74 184 0.0 0.0 0.00 0.00 0.00 72 1007.6
20260904061534 74 247 0.0 0.0 0.00 0.00 0.00 73 1007.6
20260904060012 74 274 0.0 0.0 0.00 0.00 0.00 73 1007.8
20260904054517 75 226 0.0 0.0 0.00 0.00 0.00 72 1008.4
20260904053005 76 226 0.0 0.0 0.00 0.00 0.00 72 1008.6
20260904051503 77 247 0.0 0.0 0.00 0.00 0.00 71 1008.7
20260904050001 77 247 0.0 0.0 0.00 0.00 0.00 71 1008.7
20260904044602 77 247 0.0 0.0 0.00 0.00 0.00 71 1008.6
20260904043108 77 247 0.0 0.0 0.00 0.00 0.00 71 1008.5
20260904041559 77 247 0.0 0.0 0.00 0.00 0.00 71 1008.6
20260904040058 77 247 0.0 0.0 0.00 0.00 0.00 71 1008.6
20260904034556 77 247 0.0 0.0 0.00 0.00 0.14 71 1008.6
20260904033055 77 247 0.0 0.0 0.00 0.00 0.14 71 1009.0